AFL437 ULLI-UUWW

Flight info

Callsign AFL437
Flight time N/A
Altitude 37000
Route SUGIN1A SUGIN T873 NIRGI T73 DESUD T834 ADOKU/K0728F270 T834 BEKIP BEKIP3B
Aircraft A320/M-SDE3FGHIRWY/LB1

Departure

Time 2026-05-06 19:42
Airport Pulkovo Airport (ULLI)

Arrival

Time N/A
Airport Vnukovo International Airport (UUWW)
Time Latitude Longitude Altitude Speed Heading
2026-05-06 19:22 59.79892 30.26700 82 ft 0 kts 111°
2026-05-06 19:32 59.79897 30.26673 81 ft 4 kts 102°
2026-05-06 19:33 59.79898 30.26622 85 ft 4 kts 70°
2026-05-06 19:33 59.79884 30.26581 85 ft 4 kts 30°
2026-05-06 19:33 59.79872 30.26570 81 ft 0 kts 16°
2026-05-06 19:36 59.79874 30.26571 81 ft 3 kts 16°
2026-05-06 19:36 59.79963 30.26622 84 ft 23 kts 18°
2026-05-06 19:37 59.80130 30.26722 85 ft 25 kts 17°
2026-05-06 19:37 59.80282 30.26812 83 ft 21 kts 16°
2026-05-06 19:37 59.80382 30.26935 83 ft 17 kts 85°
2026-05-06 19:37 59.80352 30.27147 81 ft 16 kts 103°
2026-05-06 19:38 59.80323 30.27352 81 ft 15 kts 105°
2026-05-06 19:38 59.80290 30.27571 80 ft 22 kts 106°
2026-05-06 19:38 59.80236 30.27930 80 ft 28 kts 106°
2026-05-06 19:38 59.80185 30.28283 83 ft 28 kts 107°
2026-05-06 19:39 59.80167 30.28585 73 ft 16 kts 56°
2026-05-06 19:39 59.80214 30.28693 78 ft 0 kts 48°
2026-05-06 19:40 59.80216 30.28697 78 ft 2 kts 48°
2026-05-06 19:41 59.80241 30.28752 69 ft 9 kts 48°
2026-05-06 19:41 59.80280 30.28838 71 ft 1 kts 48°
2026-05-06 19:41 59.80327 30.28837 77 ft 14 kts 317°
2026-05-06 19:41 59.80338 30.28791 77 ft 0 kts 287°
2026-05-06 19:42 59.80386 30.28454 78 ft 68 kts 286°
2026-05-06 19:42 59.80591 30.27075 81 ft 139 kts 287°
2026-05-06 19:42 59.80909 30.25040 643 ft 154 kts 288°
2026-05-06 19:42 59.81221 30.22999 1598 ft 155 kts 286°
2026-05-06 19:43 59.81457 30.20989 2418 ft 151 kts 284°
2026-05-06 19:43 59.81753 30.18819 2706 ft 174 kts 288°
2026-05-06 19:43 59.82129 30.16378 2984 ft 196 kts 288°
2026-05-06 19:43 59.82341 30.13545 3263 ft 220 kts 269°
2026-05-06 19:44 59.81976 30.10432 3626 ft 245 kts 242°
2026-05-06 19:44 59.80809 30.08094 4113 ft 262 kts 205°
2026-05-06 19:44 59.79453 30.07436 4726 ft 266 kts 177°
2026-05-06 19:44 59.77703 30.08521 5601 ft 268 kts 143°
2026-05-06 19:45 59.76558 30.11402 6480 ft 271 kts 111°
2026-05-06 19:45 59.76015 30.15012 7287 ft 276 kts 102°
2026-05-06 19:45 59.75694 30.18534 8043 ft 282 kts 99°
2026-05-06 19:45 59.75398 30.22386 8760 ft 291 kts 99°
2026-05-06 19:46 59.75082 30.26402 9517 ft 298 kts 101°
2026-05-06 19:46 59.74715 30.30503 10238 ft 307 kts 102°
2026-05-06 19:46 59.74285 30.34808 10510 ft 330 kts 103°
2026-05-06 19:46 59.73789 30.39399 10877 ft 348 kts 104°
2026-05-06 19:47 59.73259 30.44138 11534 ft 356 kts 104°
2026-05-06 19:47 59.72713 30.48961 12230 ft 361 kts 104°
2026-05-06 19:47 59.72154 30.53860 12924 ft 367 kts 104°
2026-05-06 19:47 59.71583 30.58832 13621 ft 373 kts 105°
2026-05-06 19:48 59.71000 30.63871 14242 ft 378 kts 105°
2026-05-06 19:48 59.70415 30.68901 14832 ft 383 kts 105°
2026-05-06 19:48 59.69814 30.74071 15431 ft 387 kts 106°
2026-05-06 19:48 59.69207 30.79298 16020 ft 392 kts 107°
2026-05-06 19:49 59.68593 30.84596 16626 ft 397 kts 107°
2026-05-06 19:49 59.67973 30.89946 17197 ft 402 kts 107°
2026-05-06 19:49 59.67340 30.95361 17782 ft 406 kts 107°
2026-05-06 19:49 59.66694 31.00845 18373 ft 411 kts 108°
2026-05-06 19:50 59.66040 31.06375 18864 ft 415 kts 108°
2026-05-06 19:50 59.65387 31.11884 19377 ft 419 kts 108°
2026-05-06 19:50 59.64714 31.17516 19885 ft 423 kts 108°
2026-05-06 19:50 59.64032 31.23200 20405 ft 426 kts 108°
2026-05-06 19:51 59.63345 31.28923 20911 ft 430 kts 108°
2026-05-06 19:51 59.62652 31.34689 21407 ft 433 kts 108°
2026-05-06 19:51 59.61950 31.40505 21886 ft 437 kts 108°
2026-05-06 19:51 59.61241 31.46365 22374 ft 440 kts 109°
2026-05-06 19:52 59.60522 31.52269 22824 ft 444 kts 109°
2026-05-06 19:52 59.59792 31.58223 23241 ft 450 kts 108°
2026-05-06 19:52 59.59048 31.64252 23648 ft 454 kts 108°
2026-05-06 19:52 59.58307 31.70243 24021 ft 457 kts 108°
2026-05-06 19:53 59.57550 31.76355 24414 ft 460 kts 109°
2026-05-06 19:53 59.56787 31.82501 24811 ft 462 kts 109°
2026-05-06 19:53 59.56015 31.88666 25207 ft 464 kts 109°
2026-05-06 19:53 59.55233 31.94862 25586 ft 467 kts 109°
2026-05-06 19:54 59.54430 32.01076 25983 ft 467 kts 112°
2026-05-06 19:54 59.53306 32.07038 26357 ft 462 kts 121°
2026-05-06 19:54 59.51763 32.12534 26733 ft 456 kts 131°
2026-05-06 19:54 59.49857 32.17468 27054 ft 450 kts 140°
2026-05-06 19:55 59.47706 32.21800 27393 ft 448 kts 143°
2026-05-06 19:55 59.45484 32.26121 27759 ft 451 kts 143°
2026-05-06 19:55 59.43247 32.30461 28116 ft 453 kts 143°
2026-05-06 19:55 59.41004 32.34817 28481 ft 455 kts 143°
2026-05-06 19:56 59.38747 32.39205 28843 ft 458 kts 143°
2026-05-06 19:56 59.36483 32.43606 29204 ft 460 kts 143°
2026-05-06 19:56 59.34206 32.48021 29506 ft 461 kts 143°
2026-05-06 19:56 59.31921 32.52442 29865 ft 463 kts 143°
2026-05-06 19:57 59.29612 32.56887 30001 ft 468 kts 143°
2026-05-06 19:57 59.27305 32.61310 30102 ft 473 kts 143°
2026-05-06 19:57 59.24943 32.65834 30280 ft 477 kts 143°
2026-05-06 19:57 59.22574 32.70383 30566 ft 478 kts 143°
2026-05-06 19:58 59.20210 32.74919 30889 ft 477 kts 143°
2026-05-06 19:58 59.17843 32.79448 31222 ft 476 kts 143°
2026-05-06 19:58 59.15478 32.83965 31569 ft 475 kts 143°
2026-05-06 19:58 59.13080 32.88529 31927 ft 474 kts 143°
2026-05-06 19:59 59.10721 32.93008 32281 ft 474 kts 143°
2026-05-06 19:59 59.08393 32.97410 32650 ft 473 kts 143°
2026-05-06 19:59 59.06034 33.01873 33011 ft 471 kts 144°
2026-05-06 19:59 59.03579 33.06509 33384 ft 471 kts 144°
2026-05-06 20:00 59.01228 33.10933 33727 ft 470 kts 144°
2026-05-06 20:00 58.98885 33.15323 34075 ft 469 kts 144°
2026-05-06 20:00 58.96538 33.19709 34358 ft 468 kts 144°
2026-05-06 20:00 58.94191 33.24084 34633 ft 468 kts 144°
2026-05-06 20:01 58.91846 33.28453 34892 ft 468 kts 144°
2026-05-06 20:01 58.89501 33.32829 35138 ft 468 kts 143°
2026-05-06 20:01 58.87189 33.37140 35376 ft 468 kts 143°
2026-05-06 20:01 58.84844 33.41500 35604 ft 468 kts 143°
2026-05-06 20:02 58.82491 33.45856 35807 ft 469 kts 143°
2026-05-06 20:02 58.80136 33.50200 36046 ft 468 kts 143°
2026-05-06 20:02 58.77780 33.54536 36272 ft 468 kts 143°
2026-05-06 20:02 58.75425 33.58867 36487 ft 468 kts 143°
2026-05-06 20:03 58.73069 33.63196 36704 ft 468 kts 143°
2026-05-06 20:03 58.70714 33.67520 36921 ft 468 kts 143°
2026-05-06 20:03 58.65997 33.76135 37028 ft 474 kts 143°
2026-05-06 20:04 58.61191 33.84878 36991 ft 477 kts 143°
2026-05-06 20:04 58.56396 33.93587 37021 ft 474 kts 143°
2026-05-06 20:05 58.51608 34.02231 37020 ft 473 kts 143°
2026-05-06 20:05 58.46813 34.10846 37018 ft 473 kts 143°
2026-05-06 20:06 58.42051 34.19389 37024 ft 473 kts 143°
2026-05-06 20:06 58.37250 34.27972 36998 ft 473 kts 143°
2026-05-06 20:07 58.32443 34.36532 37008 ft 473 kts 143°
2026-05-06 20:07 58.27625 34.45070 37012 ft 474 kts 143°
2026-05-06 20:08 58.22798 34.53580 37018 ft 474 kts 143°
2026-05-06 20:08 58.17966 34.61919 37021 ft 472 kts 145°
2026-05-06 20:09 58.12966 34.69968 36993 ft 471 kts 146°
2026-05-06 20:09 58.07931 34.77890 37002 ft 471 kts 146°
2026-05-06 20:10 58.02883 34.85770 37010 ft 471 kts 146°
2026-05-06 20:10 57.97866 34.93585 37011 ft 471 kts 146°
2026-05-06 20:11 57.92813 35.01440 37015 ft 470 kts 147°
2026-05-06 20:11 57.87523 35.08512 36987 ft 466 kts 151°
2026-05-06 20:12 57.82147 35.15273 37011 ft 465 kts 152°
2026-05-06 20:12 57.76792 35.21922 37005 ft 465 kts 152°
2026-05-06 20:13 57.71412 35.28639 37012 ft 465 kts 152°
2026-05-06 20:13 57.66049 35.35369 37013 ft 465 kts 152°
2026-05-06 20:14 57.60677 35.42090 36991 ft 465 kts 151°
2026-05-06 20:14 57.55334 35.48724 36988 ft 465 kts 152°
2026-05-06 20:15 57.49943 35.55388 36995 ft 465 kts 152°
2026-05-06 20:15 57.44546 35.62048 36999 ft 466 kts 152°
2026-05-06 20:16 57.39143 35.68685 37000 ft 465 kts 152°
2026-05-06 20:16 57.33753 35.75302 36965 ft 461 kts 150°
2026-05-06 20:17 57.28906 35.82773 36961 ft 457 kts 140°
2026-05-06 20:17 57.26613 35.86849 36736 ft 458 kts 140°
2026-05-06 20:17 57.24303 35.90951 35919 ft 462 kts 140°
2026-05-06 20:18 57.21997 35.95036 34941 ft 458 kts 141°
2026-05-06 20:18 57.19691 35.99107 33691 ft 460 kts 141°
2026-05-06 20:18 57.17383 36.03173 32533 ft 457 kts 141°
2026-05-06 20:18 57.15101 36.07187 31476 ft 451 kts 141°
2026-05-06 20:19 57.12876 36.11108 30486 ft 446 kts 141°
2026-05-06 20:19 57.10646 36.15034 29448 ft 441 kts 142°
2026-05-06 20:19 57.08264 36.18398 28516 ft 422 kts 157°
2026-05-06 20:19 57.05653 36.20570 27598 ft 408 kts 164°
2026-05-06 20:20 57.03009 36.22429 26529 ft 406 kts 165°
2026-05-06 20:20 57.00378 36.24215 25575 ft 400 kts 166°
2026-05-06 20:20 56.97779 36.25944 24668 ft 395 kts 166°
2026-05-06 20:20 56.95212 36.27644 23789 ft 390 kts 166°
2026-05-06 20:21 56.92710 36.29305 22849 ft 385 kts 166°
2026-05-06 20:21 56.90208 36.30969 21892 ft 381 kts 166°
2026-05-06 20:21 56.87731 36.32618 20975 ft 376 kts 166°
2026-05-06 20:21 56.85285 36.34247 20077 ft 373 kts 166°
2026-05-06 20:22 56.82859 36.35864 19239 ft 369 kts 166°
2026-05-06 20:22 56.80481 36.37451 18680 ft 358 kts 166°
2026-05-06 20:22 56.78167 36.38998 18266 ft 352 kts 166°
2026-05-06 20:22 56.75865 36.40523 17785 ft 351 kts 166°
2026-05-06 20:23 56.73610 36.42012 17350 ft 348 kts 166°
2026-05-06 20:23 56.71341 36.43513 16932 ft 346 kts 166°
2026-05-06 20:23 56.69085 36.45006 16506 ft 344 kts 166°
2026-05-06 20:23 56.66842 36.46491 16094 ft 343 kts 166°
2026-05-06 20:24 56.64605 36.47970 15674 ft 341 kts 166°
2026-05-06 20:24 56.62379 36.49440 15262 ft 340 kts 166°
2026-05-06 20:24 56.60153 36.50908 14849 ft 340 kts 166°
2026-05-06 20:24 56.57933 36.52365 14434 ft 339 kts 166°
2026-05-06 20:25 56.55717 36.53820 14027 ft 339 kts 166°
2026-05-06 20:25 56.53529 36.55255 13593 ft 338 kts 166°
2026-05-06 20:25 56.51321 36.56704 13152 ft 337 kts 166°
2026-05-06 20:25 56.49124 36.58143 12746 ft 335 kts 166°
2026-05-06 20:26 56.46939 36.59571 12325 ft 333 kts 166°
2026-05-06 20:26 56.44771 36.60990 12016 ft 327 kts 166°
2026-05-06 20:26 56.42669 36.62372 11895 ft 316 kts 166°
2026-05-06 20:26 56.40626 36.63713 11645 ft 310 kts 166°
2026-05-06 20:27 56.38606 36.65031 11318 ft 307 kts 166°
2026-05-06 20:27 56.36633 36.66311 10954 ft 302 kts 166°
2026-05-06 20:27 56.34671 36.67582 10375 ft 298 kts 166°
2026-05-06 20:27 56.32732 36.68835 9777 ft 294 kts 166°
2026-05-06 20:28 56.30818 36.70076 9161 ft 290 kts 165°
2026-05-06 20:28 56.28955 36.71290 8726 ft 279 kts 166°
2026-05-06 20:28 56.27169 36.72454 8336 ft 268 kts 166°
2026-05-06 20:28 56.25453 36.73568 8029 ft 255 kts 166°
2026-05-06 20:29 56.23837 36.74617 7790 ft 240 kts 166°
2026-05-06 20:29 56.22286 36.75615 7290 ft 238 kts 166°
2026-05-06 20:29 56.20737 36.76606 6914 ft 235 kts 166°
2026-05-06 20:29 56.19203 36.77587 6545 ft 233 kts 165°
2026-05-06 20:30 56.17667 36.78568 6176 ft 235 kts 165°
2026-05-06 20:30 56.14573 36.80537 5416 ft 237 kts 164°
2026-05-06 20:30 56.13015 36.81533 5050 ft 238 kts 163°
2026-05-06 20:31 56.11459 36.82532 4770 ft 234 kts 163°
2026-05-06 20:31 56.09984 36.83486 4703 ft 225 kts 163°
2026-05-06 20:31 56.08525 36.84424 4618 ft 222 kts 163°
2026-05-06 20:31 56.07070 36.85351 4524 ft 222 kts 163°
2026-05-06 20:32 56.05617 36.86278 4421 ft 222 kts 163°
2026-05-06 20:32 56.04165 36.87205 4323 ft 221 kts 162°
2026-05-06 20:32 56.02717 36.88127 4226 ft 220 kts 162°
2026-05-06 20:32 56.01277 36.89047 4128 ft 220 kts 162°
2026-05-06 20:33 55.99852 36.89955 4032 ft 220 kts 160°
2026-05-06 20:33 55.98521 36.91306 3925 ft 221 kts 146°
2026-05-06 20:33 55.97262 36.92873 3811 ft 220 kts 146°
2026-05-06 20:33 55.96006 36.94432 3697 ft 219 kts 146°
2026-05-06 20:34 55.94756 36.95985 3582 ft 218 kts 146°
2026-05-06 20:34 55.93514 36.97530 3470 ft 217 kts 146°
2026-05-06 20:34 55.92267 36.99101 3361 ft 219 kts 141°
2026-05-06 20:34 55.91417 37.01245 3248 ft 213 kts 106°
2026-05-06 20:35 55.91412 37.03827 3145 ft 211 kts 76°
2026-05-06 20:35 55.91792 37.06304 3038 ft 209 kts 75°
2026-05-06 20:35 55.92186 37.08795 2933 ft 208 kts 75°
2026-05-06 20:35 55.92568 37.11271 2829 ft 206 kts 75°
2026-05-06 20:36 55.92944 37.13731 2731 ft 205 kts 75°
2026-05-06 20:36 55.93317 37.16179 2622 ft 202 kts 75°
2026-05-06 20:36 55.93675 37.18531 2536 ft 190 kts 75°
2026-05-06 20:36 55.94014 37.20761 2512 ft 184 kts 75°
2026-05-06 20:37 55.94346 37.22954 2390 ft 182 kts 75°
2026-05-06 20:37 55.94670 37.25091 2173 ft 172 kts 76°
2026-05-06 20:37 55.94966 37.27052 1974 ft 160 kts 75°
2026-05-06 20:37 55.95245 37.28901 1786 ft 148 kts 75°
2026-05-06 20:38 55.95503 37.30610 1602 ft 137 kts 75°
2026-05-06 20:38 55.95752 37.32252 1374 ft 136 kts 74°
2026-05-06 20:38 55.95996 37.33872 1190 ft 134 kts 74°
2026-05-06 20:38 55.96238 37.35493 1043 ft 137 kts 73°
2026-05-06 20:39 55.96492 37.37125 831 ft 136 kts 72°
2026-05-06 20:39 55.96736 37.38763 703 ft 136 kts 73°
2026-05-06 20:39 55.96973 37.40300 642 ft 108 kts 73°
2026-05-06 20:39 55.97112 37.41138 639 ft 29 kts 83°
2026-05-06 20:40 55.97186 37.41334 641 ft 19 kts 358°
2026-05-06 20:40 55.97294 37.41280 640 ft 16 kts 342°
2026-05-06 20:40 55.97407 37.41224 640 ft 18 kts 347°
2026-05-06 20:40 55.97534 37.41170 645 ft 19 kts 345°
2026-05-06 20:41 55.97634 37.41243 639 ft 18 kts 76°
2026-05-06 20:41 55.97668 37.41466 639 ft 19 kts 74°
2026-05-06 20:41 55.97710 37.41647 645 ft 13 kts 59°
2026-05-06 20:41 55.97779 37.41720 645 ft 10 kts
2026-05-06 20:42 55.97806 37.41729 639 ft 0 kts 10°